TimeEDT,TemperatureF,Dew PointF,Humidity,Sea Level PressureIn,VisibilityMPH,Wind Direction,Wind SpeedMPH,Gust SpeedMPH,PrecipitationIn,Events,Conditions,WindDirDegrees,DateUTC
12:54 AM,66.9,66.0,97,29.91,10.0,Calm,Calm,-,N/A,,Mostly Cloudy,0,2013-06-03 04:54:00
1:30 AM,68.0,66.2,94,29.94,10.0,SSW,3.5,-,N/A,,Overcast,200,2013-06-03 05:30:00
1:54 AM,68.0,66.9,96,29.91,10.0,SSW,5.8,-,N/A,,Overcast,200,2013-06-03 05:54:00
2:06 AM,68.0,66.2,94,29.94,8.0,South,10.4,-,0.00,Rain,Light Rain,190,2013-06-03 06:06:00
2:26 AM,68.0,66.2,94,29.92,10.0,SSW,9.2,18.4,0.03,Rain,Light Rain,200,2013-06-03 06:26:00
2:54 AM,68.0,66.9,96,29.89,10.0,South,8.1,-,0.03,Rain,Light Rain,180,2013-06-03 06:54:00
3:15 AM,68.0,66.2,94,29.91,10.0,SSW,5.8,-,0.01,Thunderstorm,Overcast,210,2013-06-03 07:15:00
3:24 AM,68.0,66.2,94,29.91,4.0,SSW,4.6,-,0.02,Rain,Rain,210,2013-06-03 07:24:00
3:39 AM,68.0,66.2,94,29.90,10.0,SSW,4.6,-,0.06,Rain,Light Rain,210,2013-06-03 07:39:00
3:54 AM,68.0,66.9,96,29.87,10.0,SSW,4.6,-,0.06,,Overcast,210,2013-06-03 07:54:00
4:54 AM,68.0,66.9,96,29.87,10.0,Variable,3.5,-,0.01,,Overcast,0,2013-06-03 08:54:00
5:05 AM,68.0,66.2,94,29.90,10.0,SSW,3.5,-,N/A,,Overcast,200,2013-06-03 09:05:00
5:32 AM,68.0,66.2,94,29.90,10.0,SSW,3.5,-,N/A,,Overcast,200,2013-06-03 09:32:00
5:41 AM,68.0,66.2,94,29.91,10.0,SSW,4.6,-,N/A,,Overcast,200,2013-06-03 09:41:00
5:54 AM,68.0,66.9,96,29.88,10.0,SSW,3.5,-,N/A,,Overcast,210,2013-06-03 09:54:00
6:30 AM,68.0,66.2,94,29.91,10.0,SSW,4.6,-,N/A,,Overcast,210,2013-06-03 10:30:00
6:54 AM,68.0,66.9,96,29.90,10.0,SSW,5.8,-,N/A,,Overcast,200,2013-06-03 10:54:00
7:54 AM,69.1,66.9,93,29.90,10.0,SW,3.5,-,N/A,,Overcast,230,2013-06-03 11:54:00
8:54 AM,70.0,66.9,90,29.89,10.0,Variable,6.9,-,N/A,,Mostly Cloudy,0,2013-06-03 12:54:00
9:22 AM,71.6,68.0,88,29.91,10.0,West,6.9,-,N/A,,Mostly Cloudy,260,2013-06-03 13:22:00
9:54 AM,73.0,68.0,84,29.89,10.0,West,3.5,-,N/A,,Scattered Clouds,260,2013-06-03 13:54:00
10:54 AM,75.9,68.0,76,29.89,10.0,Variable,5.8,-,N/A,,Mostly Cloudy,0,2013-06-03 14:54:00
11:03 AM,75.2,66.2,73,29.92,10.0,WNW,3.5,-,N/A,,Mostly Cloudy,300,2013-06-03 15:03:00
11:18 AM,75.2,64.4,69,29.92,10.0,WNW,4.6,-,N/A,,Overcast,300,2013-06-03 15:18:00
11:54 AM,78.1,66.0,66,29.89,10.0,Calm,Calm,-,N/A,,Mostly Cloudy,0,2013-06-03 15:54:00
12:54 PM,80.1,63.0,56,29.87,10.0,Variable,4.6,-,N/A,,Partly Cloudy,0,2013-06-03 16:54:00
1:54 PM,82.0,64.0,54,29.86,10.0,Calm,Calm,-,N/A,,Partly Cloudy,0,2013-06-03 17:54:00
2:54 PM,82.9,63.0,51,29.86,10.0,West,3.5,-,N/A,,Partly Cloudy,280,2013-06-03 18:54:00
3:54 PM,75.9,66.0,71,29.86,7.0,West,3.5,-,0.01,Rain,Light Rain,280,2013-06-03 19:54:00
4:54 PM,75.0,68.0,79,29.86,10.0,SSW,4.6,-,0.00,,Mostly Cloudy,200,2013-06-03 20:54:00
5:54 PM,78.1,63.0,60,29.86,10.0,Variable,3.5,-,N/A,,Overcast,0,2013-06-03 21:54:00
6:54 PM,77.0,64.9,66,29.86,10.0,Calm,Calm,-,N/A,,Mostly Cloudy,0,2013-06-03 22:54:00
7:54 PM,73.0,63.0,71,29.88,10.0,Calm,Calm,-,N/A,,Clear,0,2013-06-03 23:54:00
8:54 PM,66.9,63.0,87,29.90,10.0,Calm,Calm,-,N/A,,Mostly Cloudy,0,2013-06-04 00:54:00
9:54 PM,64.9,62.1,90,29.93,10.0,Calm,Calm,-,N/A,,Clear,0,2013-06-04 01:54:00
10:54 PM,66.0,62.1,87,29.96,10.0,Calm,Calm,-,N/A,,Mostly Cloudy,0,2013-06-04 02:54:00
11:54 PM,68.0,66.0,93,29.98,10.0,North,3.5,-,N/A,,Mostly Cloudy,350,2013-06-04 03:54:00